Weather Roundup
Issued by NWS

Home | Current Version | Previous Version | Text Only | Print | Product List | Glossary On
Versions: 1 2 3 4 5 6 7 8 9 10 11 12 13 14 15 16 17 18 19 20 21 22 23 24 25 26 27 28 29 30 31 32 33 34 35 36 37 38 39 40 41 42 43 44 45 46 47 48 49 50
000
NZUS93 KARX 271659
HRRWXR

CURRENT HOURLY OBSERVATIONS ACROSS
MUCH OF THE UPPER MISSISSIPPI VALLEY
NATIONAL WEATHER SERVICE LA CROSSE WI
1200 PM CDT WED AUG 27 2014


...SOUTHEAST MINNESOTA...


CITY           SKY/WX    TMP DP  RH WIND       PRES   REMARKS
ROCHESTER      CLOUDY    69  57  65 E6        30.23F
ROCHESTER/MAYO PTSUNNY   70  53  56 CALM      30.23S
WINONA         PTSUNNY   72  57  60 NE3       30.22S HAZE
AUSTIN         CLOUDY    70  57  64 SE3       30.22S
ALBERT LEA     CLOUDY    70  55  60 SE5       30.22F
DODGE CENTER   PTSUNNY   70  59  68 E5        30.23F
PRESTON        PTSUNNY   67  61  79 CALM      30.23F
OWATONNA       CLOUDY    72  57  60 SE5       30.22F
FARIBAULT      PTSUNNY   73  52  46 E6        30.23F
$$

...ELSEWHERE IN MINNESOTA...


CITY           SKY/WX    TMP DP  RH WIND       PRES   REMARKS
MINNEAPOLIS    PTSUNNY   70  55  59 E6        30.23F
INTNL FALLS    PTSUNNY   65  51  60 VRB3      30.19S
DULUTH         MOSUNNY   66  48  52 N8        30.22S
RED WING       MOSUNNY   72  54  53 CALM      30.22S
REDWOOD FALLS  PTSUNNY   70  58  65 SE8       30.21F
MANKATO        PTSUNNY   70  55  60 SE8       30.22F
WORTHINGTON    CLOUDY    66  59  77 SE7       30.22F
FAIRMONT       CLOUDY    66  55  68 SE5       30.21F
$$

...SOUTHWEST WISCONSIN...


CITY           SKY/WX    TMP DP  RH WIND       PRES   REMARKS
LA CROSSE      MOSUNNY   74  55  51 VRB3      30.20F
PRAIRIE DU CHI MOSUNNY   73  53  49 N5        30.19S
BOSCOBEL       MOSUNNY   76  56  49 VRB3      30.20S
LONE ROCK      NOT AVBL
PLATTEVILLE    MOSUNNY   73  57  58 CALM      30.21S
FORT MC COY    MOSUNNY   72  53  51 N5        30.22S
VIROQUA        FAIR      70  55  58 CALM      30.22S
WIS DELLS      MOSUNNY   71  54  54 E6        30.21S
$$

...ELSEWHERE IN WISCONSIN...


CITY           SKY/WX    TMP DP  RH WIND       PRES   REMARKS
MILWAUKEE      MOSUNNY   70  63  78 N10       30.18R
MADISON        PTSUNNY   74  56  53 NE5       30.19S
GREEN BAY      MOSUNNY   71  55  56 MISG      30.19F
EAU CLAIRE     NOT AVBL
BLACK RVR FLS  CLOUDY    71  53  53 NW6       30.21S
MEDFORD        SUNNY     64  50  60 NW5       30.23S
WAUSAU         CLOUDY    66  54  65 VRB5      30.21R
WIS RAPIDS     SUNNY     72  54  53 CALM      30.22S
MARSHFIELD     CLOUDY    69  54  58 VRB6      30.22S
RICE LAKE      SUNNY     66  50  56 CALM      30.26R
$$

...NORTHEAST IOWA...


CITY           SKY/WX    TMP DP  RH WIND       PRES   REMARKS
WATERLOO       PTSUNNY   73  56  54 E7        30.18F
DUBUQUE        MOSUNNY   73  58  59 NE6       30.20S
DECORAH        NOT AVBL
MASON CITY     CLOUDY    70  57  63 E7        30.22F
CHARLES CITY   CLOUDY    72  57  60 E7        30.22F
OELWEIN        PTSUNNY   72  59  64 NE3       30.21S
$$

...ELSEWHERE IN IOWA...


CITY           SKY/WX    TMP DP  RH WIND       PRES   REMARKS
DES MOINES     CLOUDY    74  65  73 SE6       30.18R
IOWA CITY      CLOUDY    73  62  68 CALM      30.20R
FORT DODGE     CLOUDY    70  61  73 E5        30.22R
MARSHALLTOWN   CLOUDY    72  62  71 SE8       30.19S
CEDAR RAPIDS   CLOUDY    71  62  73 S6        30.19R
$$

...NORTHERN ILLINOIS...


CITY           SKY/WX    TMP DP  RH WIND       PRES   REMARKS
CHICAGO-OHARE  PTSUNNY   78  57  48 CALM      30.14S
DUPAGE         MOSUNNY   80  61  52 CALM      30.15S
CHICAGO-MIDWAY PTSUNNY   79  62  56 E7        30.14S
MOLINE         CLOUDY    77  63  61 NE5       30.16R
ROCKFORD       PTSUNNY   79  60  52 VRB5      30.17S
STERLING       PTSUNNY   79  64  61 CALM      30.16S
PEORIA         CLOUDY    84  68  58 NE7       30.13S
$$

NOTE: "FAIR" INDICATES FEW OR NO CLOUDS BELOW 12,000 FEET WITH NO
SIGNIFICANT WEATHER AND/OR OBSTRUCTIONS TO VISIBILITY. WIND
SPEEDS ARE IN MILES-PER-HOUR.



USA.gov is the U.S. government's official web portal to all federal, state and local government web resources and services.